Location: Newark
(44.2764°N, 5.2753°E)
Time: 14:13:02
(UTC+00:00)

Envisat - Visible Passes

Search period start: 26 January 2020 00:00
Search period end: 05 February 2020 00:00
Orbit: 764 x 766 km, 98.1° (Epoch: 26 January)

Date Brightness Start Highest point End Pass type
(mag) Time Alt. Az. Time Alt. Az. Time Alt. Az.
26 Jan 5.1 05:37:07 10° NNE 05:41:35 30° E 05:46:02 10° SSE visible
26 Jan 5.5 18:33:08 10° SW 18:37:05 23° W 18:41:03 10° NW visible
27 Jan 6.2 05:01:46 10° ENE 05:04:27 14° E 05:07:05 10° ESE visible
27 Jan 4.1 17:55:10 10° S 18:00:03 48° W 18:04:59 10° NNW visible
28 Jan 4.0 06:02:14 10° NNE 06:07:12 52° E 06:12:09 10° S visible
28 Jan 3.0 17:18:10 10° SSE 17:23:14 79° ENE 17:28:20 10° N visible
28 Jan 6.2 19:00:33 10° WSW 19:02:52 13° W 19:05:11 10° WNW visible
29 Jan 5.5 05:26:05 10° NE 05:30:12 24° E 05:34:18 10° SSE visible
29 Jan 5.2 18:21:21 10° SSW 18:25:41 28° W 18:30:04 10° NW visible
30 Jan 6.4 04:51:39 10° ENE 04:53:00 11° E 04:54:20 10° ESE visible
30 Jan 3.6 17:43:43 10° S 17:48:44 61° W 17:53:47 10° NNW visible
31 Jan 4.5 05:51:03 10° NNE 05:55:52 41° E 06:00:39 10° SSE visible
31 Jan 6.0 18:48:15 10° SW 18:51:26 17° W 18:54:38 10° NW visible
01 Feb 5.8 05:15:09 10° NE 05:18:48 20° E 05:22:26 10° SE visible
01 Feb 4.8 18:09:42 10° SSW 18:14:20 35° W 18:18:59 10° NNW visible
02 Feb 3.4 06:16:20 10° NNE 06:21:26 72° ESE 06:26:30 10° S visible
02 Feb 3.2 17:32:21 10° S 17:37:25 77° WSW 17:42:32 10° NNW visible
03 Feb 4.9 05:39:56 10° NNE 05:44:31 33° E 05:49:04 10° SSE visible
03 Feb 5.7 18:36:15 10° SW 18:40:01 21° W 18:43:49 10° NW visible
04 Feb 6.2 05:04:23 10° NE 05:07:23 16° E 05:10:22 10° SE visible
04 Feb 4.3 17:58:08 10° S 18:02:58 44° W 18:07:50 10° NNW visible
